Location: Oak Glen
(34.0495°N, 116.9470°E)
Time: 02:14:43
(UTC-08:00)

Vanguard 1 - Pass Details

Date: 24 June 2018
Orbit: 649 x 3834 km, 34.3° (Epoch: 18 November)

Event Time Altitude Azimuth Distance (km) Brightness Sun altitude
Rises 23:54:25 0° 277° (W) 7,739 15.2 53.6°
Reaches altitude 10° 00:03:56 10° 257° (WSW) 6,927 15.2 51.7°
Maximum altitude 00:13:42 14° 232° (SW) 6,468 15.0 49.7°
Drops below altitude 10° 00:23:04 10° 206° (SSW) 6,490 14.6 47.7°
Sets 00:31:39 0° 184° (S) 6,943 14.4 46.0°
